Location: Burzi?i
(45.0869°N, 16.0577°E)
Time: 11:48:27
(UTC+00:00)

Cosmos 2058 Rocket - Pass Details

Date: 29 October 2020
Orbit: 610 x 639 km, 82.5° (Epoch: 27 November)

Event Time Altitude Azimuth Distance (km) Brightness Sun altitude
Rises 16:39:16 0° 181° (S) 2,916 6.7 -9.7°
Reaches altitude 10° 16:41:30 10° 179° (S) 2,016 5.8 -10.1°
Maximum altitude 16:45:57 71° 96° (E) 680 3.1 -10.8°
Drops below altitude 10° 16:50:27 10° 13° (NNE) 2,041 5.5 -11.6°
Sets 16:52:43 0° 11° (NNE) 2,956 6.4 -12.0°
